Regional Weather Roundup
Issued by NWS

Home | Current Version | Previous Version | Text Only | Print | Product List | Glossary On
Versions: 1 2 3 4 5 6 7 8 9 10 11 12 13 14 15 16 17 18 19 20 21 22 23 24 25 26 27
000
ASUS45 KCYS 180010
RWRWY

WYOMING REGIONAL WEATHER ROUNDUP
NATIONAL WEATHER SERVICE CHEYENNE WY
500 PM MST TUE JAN 17 2017

NOTE:  "FAIR" INDICATES FEW OR NO CLOUDS BELOW 12,000 FEET
WITH NO SIGNIFICANT WEATHER AND/OR OBSTRUCTIONS TO VISIBILITY.

WYZ001-180100-
YELLOWSTONE NATIONAL PARK

CITY           SKY/WX    TMP DP  RH WIND       PRES   REMARKS
LK YELLOWSTONE   N/A      9   6  88 CALM      30.12S
6HR MIN TEMP:   0; 6HR MAX TEMP:  18;

W YELLOWSTONE  NOT AVBL

$$
WYZ002>013-054>058-071-098>099-180100-
NORTHERN WYOMING

CITY           SKY/WX    TMP DP  RH WIND       PRES   REMARKS
JACKSON        CLEAR      7   1  78 CALM      30.17S
CODY           FAIR      22  11  62 CALM      29.95R
GREYBULL       FAIR       9   0  67 CALM      30.01S
6HR MIN TEMP:  -3; 6HR MAX TEMP:  10; 6HR PCP: TRACE;

WORLAND        FAIR      16   7  67 CALM      29.98F
6HR MIN TEMP:   6; 6HR MAX TEMP:  20;

SHERIDAN       FAIR      27  15  61 VRB6      29.87S WCI  20
6HR MIN TEMP:  21; 6HR MAX TEMP:  37;

BUFFALO        FAIR      44  19  36 W5        29.90F
6HR MIN TEMP:  35; 6HR MAX TEMP:  46;

GILLETTE       FAIR      39  23  52 SW18      29.90R WCI  30
6HR MIN TEMP:  36; 6HR MAX TEMP:  44;

HULETT         FAIR      37  16  41 SW8       29.90S WCI  31
NEWCASTLE      FAIR      30  19  64 CALM      29.94S

$$
WYZ014>020-022>026-101>103-180100-
CENTRAL WYOMING

CITY           SKY/WX    TMP DP  RH WIND       PRES   REMARKS
BIG PINEY      FAIR      -1  -6  79 NE3       30.15S
6HR MIN TEMP:  -9; 6HR MAX TEMP:   4;

PINEDALE       FAIR       5   0  78 CALM      30.15S
DUBOIS         NOT AVBL
LANDER         FAIR      16   7  67 CALM      30.06S
6HR MIN TEMP:  11; 6HR MAX TEMP:  19;

RIVERTON       FAIR      12   5  73 NW5       30.08R WCI   4
6HR MIN TEMP:   4; 6HR MAX TEMP:  17; 6HR PCP: TRACE;

CASPER         FAIR      32  12  43 SW23      30.01R WCI  19
6HR MIN TEMP:  30; 6HR MAX TEMP:  36;

DOUGLAS        FAIR      39  13  34 NW12      29.97R WCI  32
6HR MIN TEMP:  31; 6HR MAX TEMP:  51;


$$
WYZ021-027>030-104>119-180100-
SOUTHERN WYOMING

CITY           SKY/WX    TMP DP  RH WIND       PRES   REMARKS
EVANSTON       FAIR      20   8  60 E3        30.13R
6HR MIN TEMP:  11; 6HR MAX TEMP:  21;

ROCK SPRINGS   FAIR       6   0  76 CALM      30.14S
6HR MIN TEMP:  -3; 6HR MAX TEMP:   8; 6HR PCP: TRACE;

RAWLINS        FAIR      20  11  68 SW9       30.13S WCI   9
6HR MIN TEMP:  13; 6HR MAX TEMP:  23;

LARAMIE        FAIR      17  11  77 NW3       30.07R
6HR MIN TEMP:   5; 6HR MAX TEMP:  22;

CHEYENNE       FAIR      42   6  22 W5        29.99S
6HR MIN TEMP:  41; 6HR MAX TEMP:  52;

TORRINGTON     FAIR      42   9  25 W8        29.96R
6HR MIN TEMP:  35; 6HR MAX TEMP:  52;


$$




USA.gov is the U.S. government's official web portal to all federal, state and local government web resources and services.